| time (UTC) | temp F | wind direction | speed MPH | gust MPH | rain 1hr in | rain 24hr in | rain mn in | humidity % | barometer mb |
| 20260906161548 | 89 | 165 | 3.0 | 6.0 | 0.00 | 0.15 | 0.00 | 64 | 1014.0 |
| 20260906154538 | 88 | 170 | 2.0 | 5.0 | 0.00 | 0.15 | 0.00 | 65 | 1014.2 |
| 20260906153047 | 88 | 156 | 1.0 | 3.0 | 0.00 | 0.15 | 0.00 | 67 | 1014.3 |
| 20260906151536 | 86 | 0 | 0.0 | 4.0 | 0.00 | 0.15 | 0.00 | 72 | 1014.4 |
| 20260906144537 | 84 | 57 | 2.0 | 6.0 | 0.00 | 0.15 | 0.00 | 74 | 1014.4 |
| 20260906143034 | 83 | 47 | 2.0 | 5.0 | 0.00 | 0.15 | 0.00 | 75 | 1014.7 |
| 20260906141533 | 82 | 126 | 2.0 | 4.0 | 0.00 | 0.15 | 0.00 | 77 | 1014.7 |
| 20260906134536 | 81 | 76 | 1.0 | 3.0 | 0.00 | 0.15 | 0.00 | 78 | 1014.5 |
| 20260906133041 | 79 | 74 | 2.0 | 3.0 | 0.00 | 0.15 | 0.00 | 79 | 1014.5 |
| 20260906131543 | 77 | 71 | 2.0 | 5.0 | 0.00 | 0.15 | 0.00 | 83 | 1014.6 |
| 20260906130040 | 75 | 46 | 2.0 | 5.0 | 0.00 | 0.15 | 0.00 | 85 | 1014.4 |
| 20260906123037 | 74 | 37 | 5.0 | 6.0 | 0.00 | 0.15 | 0.00 | 86 | 1014.1 |
| 20260906121538 | 74 | 17 | 4.0 | 7.0 | 0.00 | 0.15 | 0.00 | 87 | 1014.0 |
| 20260906114543 | 74 | 5 | 5.0 | 9.0 | 0.00 | 0.15 | 0.00 | 87 | 1013.6 |
| 20260906113035 | 74 | 11 | 7.0 | 9.0 | 0.00 | 0.15 | 0.00 | 86 | 1013.5 |
| 20260906111541 | 75 | 18 | 4.0 | 6.0 | 0.00 | 0.15 | 0.00 | 85 | 1013.4 |
| 20260906103034 | 74 | 323 | 4.0 | 6.0 | 0.00 | 0.15 | 0.00 | 88 | 1013.4 |
| 20260906101537 | 73 | 11 | 4.0 | 5.0 | 0.00 | 0.15 | 0.00 | 89 | 1013.4 |
| 20260906093033 | 74 | 58 | 1.0 | 3.0 | 0.00 | 0.15 | 0.00 | 88 | 1013.4 |
| 20260906090048 | 73 | 52 | 4.0 | 5.0 | 0.00 | 0.15 | 0.00 | 89 | 1013.3 |
| 20260906084539 | 73 | 55 | 3.0 | 5.0 | 0.00 | 0.15 | 0.00 | 90 | 1013.4 |
| 20260906083039 | 73 | 323 | 3.0 | 5.0 | 0.00 | 0.15 | 0.00 | 91 | 1013.3 |
| 20260906080039 | 73 | 5 | 7.0 | 8.0 | 0.00 | 0.15 | 0.00 | 91 | 1012.9 |
| 20260906063035 | 74 | 0 | 0.0 | 4.0 | 0.00 | 0.15 | 0.00 | 89 | 1013.4 |
| 20260906061538 | 74 | 311 | 4.0 | 8.0 | 0.00 | 0.15 | 0.00 | 88 | 1013.6 |
| 20260906053036 | 75 | 331 | 4.0 | 8.0 | 0.00 | 0.15 | 0.00 | 89 | 1014.2 |
| 20260906013055 | 77 | 224 | 8.0 | 12.0 | 0.01 | 0.14 | 0.14 | 84 | 1014.2 |
| 20260906011535 | 78 | 236 | 4.0 | 5.0 | 0.01 | 0.13 | 0.13 | 82 | 1014.1 |
| 20260906010037 | 78 | 0 | 0.0 | 3.0 | 0.01 | 0.13 | 0.13 | 81 | 1014.1 |
| 20260906001554 | 78 | 34 | 5.0 | 8.0 | 0.01 | 0.12 | 0.12 | 81 | 1013.2 |
| 20260905233034 | 79 | 58 | 3.0 | 5.0 | 0.01 | 0.11 | 0.11 | 81 | 1013.3 |
| 20260905231535 | 79 | 295 | 2.0 | 4.0 | 0.01 | 0.11 | 0.11 | 79 | 1013.3 |
| 20260905224535 | 79 | 0 | 0.0 | 1.0 | 0.01 | 0.10 | 0.10 | 84 | 1013.3 |
| 20260905221542 | 78 | 298 | 2.0 | 4.0 | 0.01 | 0.10 | 0.10 | 84 | 1013.2 |
| 20260905213036 | 77 | 90 | 3.0 | 6.0 | 0.01 | 0.09 | 0.09 | 84 | 1013.7 |
| 20260905211536 | 77 | 154 | 1.0 | 5.0 | 0.01 | 0.09 | 0.09 | 87 | 1013.9 |
| 20260905204535 | 77 | 261 | 8.0 | 13.0 | 0.07 | 0.09 | 0.09 | 83 | 1013.9 |
| 20260905203037 | 76 | 78 | 7.0 | 13.0 | 0.08 | 0.08 | 0.08 | 80 | 1013.7 |
| 20260905201536 | 75 | 108 | 6.0 | 17.0 | 0.08 | 0.08 | 0.08 | 84 | 1014.1 |
| 20260905200056 | 75 | 99 | 13.0 | 24.0 | 0.06 | 0.06 | 0.06 | 82 | 1013.9 |
| 20260905193040 | 85 | 53 | 13.0 | 27.0 | 0.00 | 0.00 | 0.00 | 61 | 1014.7 |
| 20260905191535 | 92 | 76 | 15.0 | 26.0 | 0.00 | 0.00 | 0.00 | 51 | 1014.1 |
| 20260905190037 | 95 | 84 | 3.0 | 5.0 | 0.00 | 0.00 | 0.00 | 47 | 1013.6 |
| 20260905183041 | 96 | 146 | 5.0 | 9.0 | 0.00 | 0.00 | 0.00 | 46 | 1013.5 |
| 20260905180040 | 95 | 209 | 7.0 | 14.0 | 0.00 | 0.00 | 0.00 | 49 | 1013.9 |
| 20260905174533 | 95 | 298 | 2.0 | 5.0 | 0.00 | 0.00 | 0.00 | 49 | 1014.1 |
| 20260905171537 | 93 | 152 | 6.0 | 10.0 | 0.00 | 0.00 | 0.00 | 50 | 1014.3 |
| 20260905170035 | 93 | 130 | 4.0 | 8.0 | 0.00 | 0.00 | 0.00 | 55 | 1014.5 |
| 20260905164537 | 93 | 215 | 4.0 | 9.0 | 0.00 | 0.00 | 0.00 | 57 | 1015.0 |
| 20260905163035 | 92 | 53 | 3.0 | 8.0 | 0.00 | 0.00 | 0.00 | 56 | 1015.2 |